TimeCEST,TemperatureF,Dew PointF,Humidity,Sea Level PressureIn,VisibilityMPH,Wind Direction,Wind SpeedMPH,Gust SpeedMPH,PrecipitationIn,Events,Conditions,WindDirDegrees,DateUTC
12:00 AM,42.8,41.0,93,30.09,-9999.0,East,3.5,-,N/A,,Clear,100,2012-10-07 22:00:00
12:30 AM,42.8,41.0,93,30.09,-9999.0,Variable,2.3,-,N/A,,Clear,0,2012-10-07 22:30:00
1:00 AM,42.8,39.2,87,30.09,-9999.0,Variable,2.3,-,N/A,,Clear,0,2012-10-07 23:00:00
1:30 AM,42.8,39.2,87,30.09,-9999.0,SSE,4.6,-,N/A,,Clear,150,2012-10-07 23:30:00
2:00 AM,42,39,83,30.15,19,South,2.2,,,,,180,2012-10-08 00:00:00
2:00 AM,41.0,37.4,87,30.12,-9999.0,Variable,2.3,-,N/A,,Clear,0,2012-10-08 00:00:00
2:30 AM,41.0,39.2,93,30.12,-9999.0,SE,5.8,-,N/A,,Clear,140,2012-10-08 00:30:00
3:00 AM,41.0,39.2,93,30.12,-9999.0,South,4.6,-,N/A,,Clear,180,2012-10-08 01:00:00
3:30 AM,39.2,37.4,93,30.12,-9999.0,SW,6.9,-,N/A,,Clear,220,2012-10-08 01:30:00
4:00 AM,41.0,37.4,87,30.12,-9999.0,WSW,9.2,-,N/A,,Clear,250,2012-10-08 02:00:00
4:30 AM,39.2,37.4,93,30.12,-9999.0,Variable,2.3,-,N/A,,Clear,0,2012-10-08 02:30:00
5:00 AM,39.2,37.4,93,30.12,-9999.0,Variable,2.3,-,N/A,,Clear,0,2012-10-08 03:00:00
5:30 AM,39.2,37.4,93,30.12,-9999.0,WNW,6.9,-,N/A,,Clear,290,2012-10-08 03:30:00
6:00 AM,39.2,37.4,93,30.12,-9999.0,NNE,3.5,-,N/A,,Clear,30,2012-10-08 04:00:00
6:30 AM,37.4,35.6,93,30.12,-9999.0,North,4.6,-,N/A,,Clear,360,2012-10-08 04:30:00
7:00 AM,39.2,37.4,93,30.12,6.2,NW,5.8,-,N/A,,Partly Cloudy,320,2012-10-08 05:00:00
7:30 AM,39.2,35.6,87,30.15,6.2,Variable,2.3,-,N/A,,Partly Cloudy,0,2012-10-08 05:30:00
8:00 AM,41,39,90,30.19,19,WNW,6.7,,,,Scattered Clouds,290,2012-10-08 06:00:00
8:00 AM,41.0,39.2,93,30.15,-9999.0,WNW,5.8,-,N/A,,Clear,290,2012-10-08 06:00:00
8:30 AM,42.8,39.2,87,30.15,6.2,West,6.9,-,N/A,,Partly Cloudy,280,2012-10-08 06:30:00
9:00 AM,44.6,41.0,87,30.15,6.2,WNW,5.8,-,N/A,,Partly Cloudy,290,2012-10-08 07:00:00
9:30 AM,48.2,41.0,76,30.15,-9999.0,WNW,5.8,-,N/A,,Clear,300,2012-10-08 07:30:00
10:00 AM,50.0,41.0,71,30.15,6.2,WNW,12.7,-,N/A,,Partly Cloudy,300,2012-10-08 08:00:00
10:30 AM,50.0,41.0,71,30.15,6.2,WNW,10.4,-,N/A,,Partly Cloudy,290,2012-10-08 08:30:00
11:00 AM,51.8,41.0,67,30.15,6.2,WNW,11.5,-,N/A,,Scattered Clouds,290,2012-10-08 09:00:00
11:30 AM,51.8,37.4,58,30.15,6.2,WNW,13.8,-,N/A,,Mostly Cloudy,290,2012-10-08 09:30:00
12:00 PM,53.6,37.4,54,30.15,6.2,WNW,13.8,-,N/A,,Mostly Cloudy,290,2012-10-08 10:00:00
12:30 PM,53.6,35.6,51,30.15,6.2,NW,12.7,-,N/A,,Overcast,310,2012-10-08 10:30:00
1:00 PM,51.8,33.8,50,30.12,6.2,West,13.8,-,N/A,,Overcast,280,2012-10-08 11:00:00
1:30 PM,53.6,35.6,51,30.12,6.2,NNW,11.5,-,N/A,,Mostly Cloudy,340,2012-10-08 11:30:00
2:00 PM,56,33,30,30.14,31,WNW,11.2,,,,Mostly Cloudy,290,2012-10-08 12:00:00
2:00 PM,55.4,33.8,44,30.12,6.2,WNW,9.2,-,N/A,,Scattered Clouds,290,2012-10-08 12:00:00
2:30 PM,53.6,35.6,51,30.12,-9999.0,NW,9.2,-,N/A,,Clear,310,2012-10-08 12:30:00
3:00 PM,53.6,33.8,47,30.12,-9999.0,NNW,6.9,-,N/A,,Clear,330,2012-10-08 13:00:00
3:30 PM,53.6,35.6,51,30.09,-9999.0,NW,5.8,-,N/A,,Clear,320,2012-10-08 13:30:00
4:00 PM,53.6,35.6,51,30.09,-9999.0,WNW,6.9,-,N/A,,Clear,300,2012-10-08 14:00:00
4:30 PM,53.6,33.8,47,30.09,-9999.0,WNW,5.8,-,N/A,,Clear,300,2012-10-08 14:30:00
5:00 PM,53.6,33.8,47,30.06,-9999.0,WNW,8.1,-,N/A,,Clear,290,2012-10-08 15:00:00
5:30 PM,51.8,35.6,54,30.06,-9999.0,WNW,4.6,-,N/A,,Clear,290,2012-10-08 15:30:00
6:00 PM,51.8,33.8,50,30.06,-9999.0,NNW,4.6,-,N/A,,Clear,330,2012-10-08 16:00:00
6:30 PM,51.8,33.8,50,30.06,-9999.0,NNW,3.5,-,N/A,,Clear,340,2012-10-08 16:30:00
7:00 PM,50.0,33.8,54,30.06,-9999.0,Variable,2.3,-,N/A,,Clear,0,2012-10-08 17:00:00
7:30 PM,48.2,35.6,62,30.06,-9999.0,North,3.5,-,N/A,,Clear,10,2012-10-08 17:30:00
8:00 PM,44,36,65,30.09,22,NE,4.5,,,,Clear,40,2012-10-08 18:00:00
8:00 PM,42.8,35.6,76,30.06,-9999.0,NE,4.6,-,N/A,,Clear,50,2012-10-08 18:00:00
8:30 PM,42.8,35.6,76,30.06,-9999.0,NE,3.5,-,N/A,,Clear,40,2012-10-08 18:30:00
9:00 PM,44.6,35.6,71,30.04,-9999.0,NE,5.8,-,N/A,,Clear,40,2012-10-08 19:00:00
9:30 PM,42.8,35.6,76,30.04,-9999.0,NNE,5.8,-,N/A,,Clear,30,2012-10-08 19:30:00
10:00 PM,42.8,35.6,76,30.04,-9999.0,NNE,5.8,-,N/A,,Clear,30,2012-10-08 20:00:00
10:30 PM,41.0,35.6,81,30.04,-9999.0,NNE,4.6,-,N/A,,Clear,30,2012-10-08 20:30:00
11:00 PM,41.0,35.6,81,30.04,-9999.0,NNW,3.5,-,N/A,,Clear,330,2012-10-08 21:00:00
11:30 PM,37.4,33.8,87,30.04,-9999.0,Variable,1.2,-,N/A,,Clear,0,2012-10-08 21:30:00